Weather History for Wooster, OH

Change the Weather History Date:

Thursday, April 17, 2014

  Actual Average Record
Temperature  
Mean Temperature 48 °F -  
Max Temperature 64 °F 58 °F 81 °F (2002)
Min Temperature 33 °F 38 °F 27 °F (2001)
Degree Days  
Heating Degree Days 16    
Moisture  
Dew Point 28 °F    
Average Humidity 50    
Maximum Humidity 74    
Minimum Humidity 30    
Precipitation  
Precipitation 0.00 in - - ()
Sea Level Pressure  
Sea Level Pressure 30.36 in    
Wind  
Wind Speed 9 mph (SSE)    
Max Wind Speed 16 mph    
Max Gust Speed 23 mph    
Visibility 10 miles    
Events      
Averages and records for this station are not official NWS values.
T = Trace of Precipitation, MM = Missing Value Source: NWS Daily Summary

Daily Weather History Graph

Daily Weather History Graph

Search for Another Location

Airport:

Trip Planner

Search our weather history database for the weather conditions in past years. The results will help you decide how hot, cold, wet, or windy it might be!

Date:

Astronomy

Apr. 17, 2014 Rise Set
Actual Time 6:45 AM EDT 8:09 PM EDT
Civil Twilight 6:16 AM EDT 8:37 PM EDT
Nautical Twilight 5:42 AM EDT 9:12 PM EDT
Astronomical Twilight 5:06 AM EDT 9:48 PM EDT
Moon 10:54 PM EDT (4/17) 8:15 AM EDT (4/17)
Length of Visible Light 14h 20m
Length of Day
13h 23m
Waning Gibbous, 94% of the Moon is Illuminated
Apr 17
Waning Gibbous
Apr 22
Last Quarter
Apr 29
New
May 6
First Quarter
May 14
Full

Hourly Weather History & Observations

Time (EDT) Temp. Windchill Dew Point Humidity Pressure Visibility Wind Dir Wind Speed Gust Speed Precip Events Conditions
12:56 AM 34.0 °F 28.0 °F 19.9 °F 56% 30.40 in 10.0 mi East 6.9 mph - N/A   Clear
1:56 AM 33.1 °F 26.1 °F 21.0 °F 61% 30.38 in 10.0 mi ESE 8.1 mph - N/A   Clear
2:56 AM 34.0 °F 25.5 °F 21.0 °F 59% 30.37 in 10.0 mi SE 11.5 mph - N/A   Clear
3:56 AM 35.1 °F 26.4 °F 21.0 °F 57% 30.36 in 10.0 mi SE 12.7 mph - N/A   Clear
4:56 AM 35.1 °F 27.9 °F 21.0 °F 57% 30.37 in 10.0 mi SE 9.2 mph - N/A   Clear
5:56 AM 34.0 °F 26.6 °F 21.0 °F 59% 30.39 in 10.0 mi SE 9.2 mph - N/A   Clear
6:56 AM 34.0 °F 26.6 °F 21.0 °F 59% 30.40 in 10.0 mi SE 9.2 mph - N/A   Clear
7:56 AM 37.0 °F 29.8 °F 23.0 °F 57% 30.42 in 10.0 mi SE 10.4 mph - N/A   Clear
8:56 AM 41.0 °F 33.5 °F 24.1 °F 51% 30.42 in 10.0 mi SSE 13.8 mph - N/A   Clear
9:56 AM 46.0 °F 39.3 °F 26.1 °F 46% 30.41 in 10.0 mi South 16.1 mph 21.9 mph N/A   Clear
10:56 AM 50.0 °F - 27.0 °F 41% 30.42 in 10.0 mi South 12.7 mph - N/A   Clear
1:56 PM 59.0 °F - 30.9 °F 35% 30.38 in 10.0 mi SSE 8.1 mph - N/A   Clear
2:56 PM 62.1 °F - 32.0 °F 32% 30.36 in 10.0 mi SSW 11.5 mph 23.0 mph N/A   Clear
3:56 PM 63.0 °F - 32.0 °F 31% 30.33 in 10.0 mi South 15.0 mph 19.6 mph N/A   Clear
4:56 PM 64.0 °F - 32.0 °F 30% 30.31 in 10.0 mi SSW 10.4 mph - N/A   Clear
5:56 PM 64.0 °F - 32.0 °F 30% 30.31 in 10.0 mi South 9.2 mph 16.1 mph N/A   Clear
6:56 PM 62.1 °F - 33.1 °F 34% 30.31 in 10.0 mi South 9.2 mph - N/A   Clear
7:56 PM 59.0 °F - 30.9 °F 35% 30.31 in 10.0 mi South 5.8 mph - N/A   Clear
8:56 PM 51.1 °F - 35.1 °F 54% 30.31 in 10.0 mi Calm Calm - N/A   Clear
9:56 PM 45.0 °F - 36.0 °F 71% 30.34 in 10.0 mi Calm Calm - N/A   Clear
10:56 PM 44.1 °F - 35.1 °F 71% 30.35 in 10.0 mi Calm Calm - N/A   Clear
11:56 PM 43.0 °F - 35.1 °F 74% 30.32 in 10.0 mi Calm Calm - N/A   Clear